Погода в Корбе

Тунис     36°34′24″N   10°51′31″E
темп.,
°C
ветер,
м/с
пор.,
м/с
влажн.,
%
обл.,
%
осадки,
мм/ч
давл.,
гПа
погр.,
м
6 марта, сб
сб601:00+10вюв11960 0.0 101931
04:00+9с11960 0.0 101933
07:00+9ссв22950 0.0 102048
10:00+15в22740 0.0 1022452
13:00+16вюв44680 0.0 1022548
16:00+16юв45760 0.0 1021494
19:00+13вюв34921 0.0 102292
22:00+12юв33930 0.0 102449
7 марта, вс
вс701:00+12ююв349226 0.0 102469
04:00+11ююв349337 0.0 102290
07:00+12юв469469 0.0 1023172
10:00+15ююв798059 0.0 1023737
13:00+16ююв897433 0.0 1021771
16:00+15юв798172 0.0 1018635
19:00+13юв699185 0.0 1018450
22:00+14юв7987100 0.0 1018673
8 марта, пн
пн801:00+13юв5787100 0.1 1017455
04:00+12юв578970 0.1 1015302
07:00+13юв678479 0.1 1014549
10:00+14юв5678100 0.0 1014720
13:00+15юв5574100 0.1 1013732
16:00+15вюв4474100 0.0 1012670
19:00+11вюв229193 0.0 101254
22:00+12всв2292100 0.0 101466
9 марта, вт
вт901:00+9ссз129676 0.0 101340
04:00+9сз22933 0.0 101339
07:00+9сз22905 0.0 101447
10:00+15сз457359 0.0 1015640
13:00+17юв126378 0.3 1015902
16:00+16всв127398 2.9 1014309
19:00+14сз238799 4.7 1015111
22:00+13з3589100 1.3 1018229
10 марта, ср
ср1001:00+12зсз61190100 1.4 1019443
04:00+12сз61093100 0.1 1018416
07:00+12сз5990100 0.3 1020399
10:00+15ссз677187 0.1 10221013
13:00+17с775670 0.2 10221185
16:00+16с895645 0.0 10211064
19:00+11ссз6107422 0.0 1023334
22:00+10ссз610810 0.0 1025267